Time,TemperatureF,DewpointF,PressureIn,WindDirection,WindDirectionDegrees,WindSpeedMPH,WindSpeedGustMPH,Humidity,HourlyPrecipIn,Conditions,Clouds,dailyrainin,SolarRadiationWatts/m^2,SoftwareType,DateUTC
2013-03-18 00:00:00,29.3,8.0,30.27,North,357,0.0,3.0,40,0.00,,,0.00,0,HR-IXPWINDi_r2_v1.2.,2013-03-18 04:00:00,
2013-03-18 00:05:00,29.1,8.4,30.27,North,357,0.0,2.0,41,0.00,,,0.00,0,HR-IXPWINDi_r2_v1.2.,2013-03-18 04:05:00,
2013-03-18 00:10:00,29.0,7.7,30.28,North,357,1.0,2.0,40,0.00,,,0.00,0,HR-IXPWINDi_r2_v1.2.,2013-03-18 04:10:00,
2013-03-18 00:15:00,28.8,7.6,30.28,NNW,347,1.0,5.0,40,0.00,,,0.00,0,HR-IXPWINDi_r2_v1.2.,2013-03-18 04:15:00,
2013-03-18 00:20:00,28.8,7.6,30.28,NNW,347,1.0,5.0,40,0.00,,,0.00,0,HR-IXPWINDi_r2_v1.2.,2013-03-18 04:20:00,
2013-03-18 00:25:00,28.8,7.0,30.28,NNW,347,1.0,2.0,39,0.00,,,0.00,0,HR-IXPWINDi_r2_v1.2.,2013-03-18 04:25:00,
2013-03-18 00:30:00,28.7,7.5,30.28,NNW,347,0.0,2.0,40,0.00,,,0.00,0,HR-IXPWINDi_r2_v1.2.,2013-03-18 04:30:00,
2013-03-18 00:35:00,28.7,7.5,30.29,NNW,346,0.0,2.0,40,0.00,,,0.00,0,HR-IXPWINDi_r2_v1.2.,2013-03-18 04:35:00,
2013-03-18 00:41:00,28.5,7.3,30.29,NNW,346,0.0,2.0,40,0.00,,,0.00,0,HR-IXPWINDi_r2_v1.2.,2013-03-18 04:41:00,
2013-03-18 00:46:00,28.4,7.7,30.29,NNW,346,1.0,2.0,41,0.00,,,0.00,0,HR-IXPWINDi_r2_v1.2.,2013-03-18 04:46:00,
2013-03-18 00:51:00,28.2,8.1,30.29,NNW,346,0.0,2.0,42,0.00,,,0.00,0,HR-IXPWINDi_r2_v1.2.,2013-03-18 04:51:00,
2013-03-18 00:56:00,28.1,8.0,30.29,NNW,346,0.0,1.0,42,0.00,,,0.00,0,HR-IXPWINDi_r2_v1.2.,2013-03-18 04:56:00,
2013-03-18 01:01:00,27.9,7.8,30.29,NNW,346,0.0,2.0,42,0.00,,,0.00,0,HR-IXPWINDi_r2_v1.2.,2013-03-18 05:01:00,
2013-03-18 01:07:00,27.8,7.7,30.29,NNW,344,0.0,2.0,42,0.00,,,0.00,0,HR-IXPWINDi_r2_v1.2.,2013-03-18 05:07:00,
2013-03-18 01:12:00,27.8,7.7,30.29,NNW,344,0.0,2.0,42,0.00,,,0.00,0,HR-IXPWINDi_r2_v1.2.,2013-03-18 05:12:00,
2013-03-18 01:17:00,27.6,7.6,30.29,NNW,344,0.0,2.0,42,0.00,,,0.00,0,HR-IXPWINDi_r2_v1.2.,2013-03-18 05:17:00,
2013-03-18 01:22:00,27.6,7.6,30.29,NNW,344,0.0,2.0,42,0.00,,,0.00,0,HR-IXPWINDi_r2_v1.2.,2013-03-18 05:22:00,
2013-03-18 01:27:00,27.5,7.5,30.29,NNW,344,0.0,2.0,42,0.00,,,0.00,0,HR-IXPWINDi_r2_v1.2.,2013-03-18 05:27:00,
2013-03-18 01:33:00,27.3,7.8,30.29,NNW,344,0.0,2.0,43,0.00,,,0.00,0,HR-IXPWINDi_r2_v1.2.,2013-03-18 05:33:00,
2013-03-18 01:38:00,27.3,7.8,30.30,NNW,344,0.0,2.0,43,0.00,,,0.00,0,HR-IXPWINDi_r2_v1.2.,2013-03-18 05:38:00,
2013-03-18 01:43:00,27.3,9.3,30.30,NNW,344,0.0,2.0,46,0.00,,,0.00,0,HR-IXPWINDi_r2_v1.2.,2013-03-18 05:43:00,
2013-03-18 01:48:00,27.2,8.7,30.30,NNW,344,0.0,0.0,45,0.00,,,0.00,0,HR-IXPWINDi_r2_v1.2.,2013-03-18 05:48:00,
2013-03-18 01:53:00,27.0,10.0,30.30,NNW,344,0.0,0.0,48,0.00,,,0.00,0,HR-IXPWINDi_r2_v1.2.,2013-03-18 05:53:00,
2013-03-18 01:58:00,26.7,10.6,30.30,NNW,344,0.0,0.0,50,0.00,,,0.00,0,HR-IXPWINDi_r2_v1.2.,2013-03-18 05:58:00,
2013-03-18 02:04:00,26.4,9.4,30.30,North,353,0.0,2.0,48,0.00,,,0.00,0,HR-IXPWINDi_r2_v1.2.,2013-03-18 06:04:00,
2013-03-18 02:09:00,26.3,8.4,30.30,NNW,336,2.0,2.0,46,0.00,,,0.00,0,HR-IXPWINDi_r2_v1.2.,2013-03-18 06:09:00,
2013-03-18 02:14:00,26.3,7.4,30.30,NNW,343,1.0,3.0,44,0.00,,,0.00,0,HR-IXPWINDi_r2_v1.2.,2013-03-18 06:14:00,
2013-03-18 02:19:00,26.4,8.5,30.30,NNW,344,1.0,3.0,46,0.00,,,0.00,0,HR-IXPWINDi_r2_v1.2.,2013-03-18 06:19:00,
2013-03-18 02:24:00,26.3,7.9,30.31,NNW,344,1.0,2.0,45,0.00,,,0.00,0,HR-IXPWINDi_r2_v1.2.,2013-03-18 06:24:00,
2013-03-18 02:30:00,26.3,7.4,30.31,North,359,0.0,2.0,44,0.00,,,0.00,0,HR-IXPWINDi_r2_v1.2.,2013-03-18 06:30:00,
2013-03-18 02:35:00,26.3,7.4,30.31,North,359,1.0,3.0,44,0.00,,,0.00,0,HR-IXPWINDi_r2_v1.2.,2013-03-18 06:35:00,
2013-03-18 02:40:00,26.1,7.2,30.32,North,359,0.0,3.0,44,0.00,,,0.00,0,HR-IXPWINDi_r2_v1.2.,2013-03-18 06:40:00,
2013-03-18 02:45:00,26.0,7.6,30.32,North,359,1.0,2.0,45,0.00,,,0.00,0,HR-IXPWINDi_r2_v1.2.,2013-03-18 06:45:00,
2013-03-18 02:50:00,26.0,7.1,30.32,NNE,16,1.0,5.0,44,0.00,,,0.00,0,HR-IXPWINDi_r2_v1.2.,2013-03-18 06:50:00,
2013-03-18 02:55:00,26.0,7.1,30.32,NNE,21,0.0,5.0,44,0.00,,,0.00,0,HR-IXPWINDi_r2_v1.2.,2013-03-18 06:55:00,
2013-03-18 03:01:00,25.8,6.4,30.32,NNW,347,2.0,4.0,43,0.00,,,0.00,0,HR-IXPWINDi_r2_v1.2.,2013-03-18 07:01:00,
2013-03-18 03:06:00,26.0,6.6,30.32,NNW,344,3.0,6.0,43,0.00,,,0.00,0,HR-IXPWINDi_r2_v1.2.,2013-03-18 07:06:00,
2013-03-18 03:11:00,26.0,6.6,30.32,NNW,342,1.0,6.0,43,0.00,,,0.00,0,HR-IXPWINDi_r2_v1.2.,2013-03-18 07:11:00,
2013-03-18 03:17:00,25.8,6.4,30.32,NNW,344,1.0,3.0,43,0.00,,,0.00,0,HR-IXPWINDi_r2_v1.2.,2013-03-18 07:17:00,
2013-03-18 03:22:00,25.7,6.9,30.32,NNW,342,3.0,3.0,44,0.00,,,0.00,0,HR-IXPWINDi_r2_v1.2.,2013-03-18 07:22:00,
2013-03-18 03:27:00,25.7,7.3,30.32,NNW,343,1.0,3.0,45,0.00,,,0.00,0,HR-IXPWINDi_r2_v1.2.,2013-03-18 07:27:00,
2013-03-18 03:32:00,25.6,6.8,30.32,North,354,0.0,3.0,44,0.00,,,0.00,0,HR-IXPWINDi_r2_v1.2.,2013-03-18 07:32:00,
2013-03-18 03:37:00,25.4,6.6,30.33,North,353,0.0,2.0,44,0.00,,,0.00,0,HR-IXPWINDi_r2_v1.2.,2013-03-18 07:37:00,
2013-03-18 03:42:00,25.4,7.1,30.33,NNW,342,1.0,3.0,45,0.00,,,0.00,0,HR-IXPWINDi_r2_v1.2.,2013-03-18 07:42:00,
2013-03-18 03:47:00,25.3,7.0,30.33,NNW,340,1.0,3.0,45,0.00,,,0.00,0,HR-IXPWINDi_r2_v1.2.,2013-03-18 07:47:00,
2013-03-18 03:53:00,25.1,7.3,30.33,NNW,343,1.0,2.0,46,0.00,,,0.00,0,HR-IXPWINDi_r2_v1.2.,2013-03-18 07:53:00,
2013-03-18 03:58:00,25.0,7.2,30.33,NNW,343,2.0,2.0,46,0.00,,,0.00,0,HR-IXPWINDi_r2_v1.2.,2013-03-18 07:58:00,
2013-03-18 04:03:00,25.0,7.7,30.33,NNW,344,0.0,2.0,47,0.00,,,0.00,0,HR-IXPWINDi_r2_v1.2.,2013-03-18 08:03:00,
2013-03-18 04:08:00,24.8,7.5,30.34,NNW,344,1.0,2.0,47,0.00,,,0.00,0,HR-IXPWINDi_r2_v1.2.,2013-03-18 08:08:00,
2013-03-18 04:13:00,24.7,7.4,30.34,NNW,344,0.0,2.0,47,0.00,,,0.00,0,HR-IXPWINDi_r2_v1.2.,2013-03-18 08:13:00,
2013-03-18 04:19:00,24.7,7.9,30.34,NNW,344,0.0,2.0,48,0.00,,,0.00,0,HR-IXPWINDi_r2_v1.2.,2013-03-18 08:19:00,
2013-03-18 04:24:00,24.7,7.4,30.33,NNW,343,0.0,3.0,47,0.00,,,0.00,0,HR-IXPWINDi_r2_v1.2.,2013-03-18 08:24:00,
2013-03-18 04:29:00,24.5,7.7,30.33,NNW,343,0.0,3.0,48,0.00,,,0.00,0,HR-IXPWINDi_r2_v1.2.,2013-03-18 08:29:00,
2013-03-18 04:34:00,24.5,7.7,30.33,NNW,343,0.0,2.0,48,0.00,,,0.00,0,HR-IXPWINDi_r2_v1.2.,2013-03-18 08:34:00,
2013-03-18 04:39:00,24.4,7.6,30.34,NNW,344,0.0,2.0,48,0.00,,,0.00,0,HR-IXPWINDi_r2_v1.2.,2013-03-18 08:39:00,
2013-03-18 04:44:00,24.2,7.4,30.34,NNW,344,2.0,2.0,48,0.00,,,0.00,0,HR-IXPWINDi_r2_v1.2.,2013-03-18 08:44:00,
2013-03-18 04:49:00,24.2,7.8,30.34,NNW,344,0.0,2.0,49,0.00,,,0.00,0,HR-IXPWINDi_r2_v1.2.,2013-03-18 08:49:00,
2013-03-18 04:54:00,24.1,8.2,30.34,NNW,344,0.0,2.0,50,0.00,,,0.00,0,HR-IXPWINDi_r2_v1.2.,2013-03-18 08:54:00,
2013-03-18 04:59:00,23.9,8.0,30.34,NNW,344,0.0,0.0,50,0.00,,,0.00,0,HR-IXPWINDi_r2_v1.2.,2013-03-18 08:59:00,
2013-03-18 05:05:00,23.9,8.0,30.34,NNW,344,0.0,0.0,50,0.00,,,0.00,0,HR-IXPWINDi_r2_v1.2.,2013-03-18 09:05:00,
2013-03-18 05:10:00,23.8,7.9,30.35,NNW,343,0.0,2.0,50,0.00,,,0.00,0,HR-IXPWINDi_r2_v1.2.,2013-03-18 09:10:00,
2013-03-18 05:15:00,23.6,8.6,30.35,NNW,344,0.0,2.0,52,0.00,,,0.00,0,HR-IXPWINDi_r2_v1.2.,2013-03-18 09:15:00,
2013-03-18 05:20:00,23.6,8.2,30.35,NNW,344,1.0,1.0,51,0.00,,,0.00,0,HR-IXPWINDi_r2_v1.2.,2013-03-18 09:20:00,
2013-03-18 05:25:00,23.5,8.1,30.35,NNW,344,0.0,1.0,51,0.00,,,0.00,0,HR-IXPWINDi_r2_v1.2.,2013-03-18 09:25:00,
2013-03-18 05:30:00,23.5,8.1,30.35,NNW,344,0.0,1.0,51,0.00,,,0.00,0,HR-IXPWINDi_r2_v1.2.,2013-03-18 09:30:00,
2013-03-18 05:35:00,23.3,7.9,30.36,NNW,344,1.0,2.0,51,0.00,,,0.00,0,HR-IXPWINDi_r2_v1.2.,2013-03-18 09:35:00,
2013-03-18 05:41:00,23.3,7.5,30.36,NNW,343,0.0,3.0,50,0.00,,,0.00,0,HR-IXPWINDi_r2_v1.2.,2013-03-18 09:41:00,
2013-03-18 05:47:00,23.2,7.8,30.36,NNW,344,0.0,3.0,51,0.00,,,0.00,0,HR-IXPWINDi_r2_v1.2.,2013-03-18 09:47:00,
2013-03-18 05:52:00,23.2,7.8,30.35,NNW,343,1.0,3.0,51,0.00,,,0.00,0,HR-IXPWINDi_r2_v1.2.,2013-03-18 09:52:00,
2013-03-18 05:57:00,23.2,7.4,30.35,NNW,343,0.0,3.0,50,0.00,,,0.00,0,HR-IXPWINDi_r2_v1.2.,2013-03-18 09:57:00,
2013-03-18 06:02:00,23.2,8.2,30.35,NNW,343,0.0,2.0,52,0.00,,,0.00,0,HR-IXPWINDi_r2_v1.2.,2013-03-18 10:02:00,
2013-03-18 06:07:00,23.0,8.5,30.36,NNW,343,0.0,2.0,53,0.00,,,0.00,0,HR-IXPWINDi_r2_v1.2.,2013-03-18 10:07:00,
2013-03-18 06:12:00,22.9,8.4,30.36,NNW,343,0.0,0.0,53,0.00,,,0.00,0,HR-IXPWINDi_r2_v1.2.,2013-03-18 10:12:00,
2013-03-18 06:17:00,22.9,8.4,30.36,NNW,340,0.0,2.0,53,0.00,,,0.00,0,HR-IXPWINDi_r2_v1.2.,2013-03-18 10:17:00,
2013-03-18 06:23:00,22.7,8.2,30.38,NNW,343,0.0,2.0,53,0.00,,,0.00,0,HR-IXPWINDi_r2_v1.2.,2013-03-18 10:23:00,
2013-03-18 06:28:00,22.7,8.6,30.38,NNW,343,0.0,1.0,54,0.00,,,0.00,0,HR-IXPWINDi_r2_v1.2.,2013-03-18 10:28:00,
2013-03-18 06:33:00,22.7,9.0,30.38,NNW,343,0.0,1.0,55,0.00,,,0.00,0,HR-IXPWINDi_r2_v1.2.,2013-03-18 10:33:00,
2013-03-18 06:38:00,22.7,9.0,30.38,NNW,343,0.0,2.0,55,0.00,,,0.00,0,HR-IXPWINDi_r2_v1.2.,2013-03-18 10:38:00,
2013-03-18 06:44:00,22.7,9.0,30.38,NNW,343,0.0,2.0,55,0.00,,,0.00,0,HR-IXPWINDi_r2_v1.2.,2013-03-18 10:44:00,
2013-03-18 06:49:00,22.5,8.8,30.38,NNW,343,0.0,1.0,55,0.00,,,0.00,0,HR-IXPWINDi_r2_v1.2.,2013-03-18 10:49:00,
2013-03-18 06:54:00,22.5,9.2,30.39,NNW,343,0.0,0.0,56,0.00,,,0.00,0,HR-IXPWINDi_r2_v1.2.,2013-03-18 10:54:00,
2013-03-18 06:59:00,22.5,9.2,30.39,NNW,342,0.0,0.0,56,0.00,,,0.00,0,HR-IXPWINDi_r2_v1.2.,2013-03-18 10:59:00,
2013-03-18 07:04:00,22.4,9.1,30.39,NNW,342,0.0,0.0,56,0.00,,,0.00,0,HR-IXPWINDi_r2_v1.2.,2013-03-18 11:04:00,
2013-03-18 07:09:00,22.4,9.1,30.38,NNW,343,0.0,1.0,56,0.00,,,0.00,0,HR-IXPWINDi_r2_v1.2.,2013-03-18 11:09:00,
2013-03-18 07:15:00,22.5,9.2,30.38,NNW,343,0.0,1.0,56,0.00,,,0.00,0,HR-IXPWINDi_r2_v1.2.,2013-03-18 11:15:00,
2013-03-18 07:20:00,22.5,8.8,30.38,NNW,343,0.0,0.0,55,0.00,,,0.00,7,HR-IXPWINDi_r2_v1.2.,2013-03-18 11:20:00,
2013-03-18 07:25:00,22.7,9.0,30.38,NNW,343,0.0,2.0,55,0.00,,,0.00,14,HR-IXPWINDi_r2_v1.2.,2013-03-18 11:25:00,
2013-03-18 07:30:00,22.9,9.2,30.38,NNW,343,0.0,2.0,55,0.00,,,0.00,16,HR-IXPWINDi_r2_v1.2.,2013-03-18 11:30:00,
2013-03-18 07:35:00,22.9,8.8,30.38,NNW,343,0.0,2.0,54,0.00,,,0.00,19,HR-IXPWINDi_r2_v1.2.,2013-03-18 11:35:00,
2013-03-18 07:40:00,23.0,8.5,30.38,NNE,16,0.0,3.0,53,0.00,,,0.00,19,HR-IXPWINDi_r2_v1.2.,2013-03-18 11:40:00,
2013-03-18 07:46:00,23.2,8.7,30.38,NNE,21,0.0,3.0,53,0.00,,,0.00,26,HR-IXPWINDi_r2_v1.2.,2013-03-18 11:46:00,
2013-03-18 07:51:00,23.5,8.9,30.38,NE,45,0.0,6.0,53,0.00,,,0.00,28,HR-IXPWINDi_r2_v1.2.,2013-03-18 11:51:00,
2013-03-18 07:56:00,23.5,8.5,30.38,NE,35,2.0,6.0,52,0.00,,,0.00,28,HR-IXPWINDi_r2_v1.2.,2013-03-18 11:56:00,
2013-03-18 08:01:00,23.6,8.6,30.38,NE,38,1.0,3.0,52,0.00,,,0.00,33,HR-IXPWINDi_r2_v1.2.,2013-03-18 12:01:00,
2013-03-18 08:06:00,23.6,8.6,30.38,NE,54,0.0,3.0,52,0.00,,,0.00,40,HR-IXPWINDi_r2_v1.2.,2013-03-18 12:06:00,
2013-03-18 08:11:00,23.8,8.8,30.38,NE,37,0.0,3.0,52,0.00,,,0.00,49,HR-IXPWINDi_r2_v1.2.,2013-03-18 12:11:00,
2013-03-18 08:16:00,23.9,8.5,30.38,NE,40,1.0,3.0,51,0.00,,,0.00,55,HR-IXPWINDi_r2_v1.2.,2013-03-18 12:16:00,
2013-03-18 08:21:00,24.1,7.8,30.38,NNE,27,0.0,2.0,49,0.00,,,0.00,67,HR-IXPWINDi_r2_v1.2.,2013-03-18 12:21:00,
2013-03-18 08:27:00,24.2,7.4,30.38,ENE,65,2.0,5.0,48,0.00,,,0.00,70,HR-IXPWINDi_r2_v1.2.,2013-03-18 12:27:00,
2013-03-18 08:32:00,24.4,7.1,30.38,ENE,69,0.0,5.0,47,0.00,,,0.00,72,HR-IXPWINDi_r2_v1.2.,2013-03-18 12:32:00,
2013-03-18 08:37:00,24.5,7.2,30.38,NE,52,0.0,2.0,47,0.00,,,0.00,93,HR-IXPWINDi_r2_v1.2.,2013-03-18 12:37:00,
2013-03-18 08:42:00,24.5,6.3,30.38,ENE,59,0.0,5.0,45,0.00,,,0.00,86,HR-IXPWINDi_r2_v1.2.,2013-03-18 12:42:00,
2013-03-18 08:48:00,24.7,6.9,30.38,ENE,59,1.0,5.0,46,0.00,,,0.00,81,HR-IXPWINDi_r2_v1.2.,2013-03-18 12:48:00,
2013-03-18 08:53:00,24.8,6.5,30.38,ENE,59,1.0,2.0,45,0.00,,,0.00,77,HR-IXPWINDi_r2_v1.2.,2013-03-18 12:53:00,
2013-03-18 08:58:00,25.0,6.7,30.38,NE,51,3.0,3.0,45,0.00,,,0.00,90,HR-IXPWINDi_r2_v1.2.,2013-03-18 12:58:00,
2013-03-18 09:03:00,25.0,6.2,30.38,ENE,59,2.0,3.0,44,0.00,,,0.00,99,HR-IXPWINDi_r2_v1.2.,2013-03-18 13:03:00,
2013-03-18 09:08:00,25.1,5.8,30.38,ENE,73,0.0,4.0,43,0.00,,,0.00,91,HR-IXPWINDi_r2_v1.2.,2013-03-18 13:08:00,
2013-03-18 09:14:00,25.3,6.0,30.38,ESE,104,0.0,4.0,43,0.00,,,0.00,104,HR-IXPWINDi_r2_v1.2.,2013-03-18 13:14:00,
2013-03-18 09:19:00,25.4,6.1,30.38,ESE,104,0.0,4.0,43,0.00,,,0.00,113,HR-IXPWINDi_r2_v1.2.,2013-03-18 13:19:00,
2013-03-18 09:24:00,25.8,6.4,30.38,ESE,104,0.0,3.0,43,0.00,,,0.00,113,HR-IXPWINDi_r2_v1.2.,2013-03-18 13:24:00,
2013-03-18 09:29:00,26.0,5.6,30.38,ENE,69,3.0,3.0,41,0.00,,,0.00,113,HR-IXPWINDi_r2_v1.2.,2013-03-18 13:29:00,
2013-03-18 09:34:00,25.8,5.4,30.38,East,92,0.0,6.0,41,0.00,,,0.00,125,HR-IXPWINDi_r2_v1.2.,2013-03-18 13:34:00,
2013-03-18 09:40:00,26.0,5.0,30.38,East,88,2.0,6.0,40,0.00,,,0.00,141,HR-IXPWINDi_r2_v1.2.,2013-03-18 13:40:00,
2013-03-18 09:45:00,26.1,5.1,30.38,East,89,0.0,3.0,40,0.00,,,0.00,146,HR-IXPWINDi_r2_v1.2.,2013-03-18 13:45:00,
2013-03-18 09:50:00,26.3,5.3,30.38,East,89,1.0,3.0,40,0.00,,,0.00,134,HR-IXPWINDi_r2_v1.2.,2013-03-18 13:50:00,
2013-03-18 09:55:00,26.6,5.6,30.38,ESE,104,0.0,3.0,40,0.00,,,0.00,134,HR-IXPWINDi_r2_v1.2.,2013-03-18 13:55:00,
2013-03-18 10:00:00,26.7,5.1,30.38,ESE,104,2.0,3.0,39,0.00,,,0.00,132,HR-IXPWINDi_r2_v1.2.,2013-03-18 14:00:00,
2013-03-18 10:05:00,27.0,5.9,30.38,ESE,104,0.0,3.0,40,0.00,,,0.00,134,HR-IXPWINDi_r2_v1.2.,2013-03-18 14:05:00,
2013-03-18 10:10:00,27.6,7.0,30.37,ESE,116,0.0,2.0,41,0.00,,,0.00,128,HR-IXPWINDi_r2_v1.2.,2013-03-18 14:10:00,
2013-03-18 10:15:00,28.4,6.7,30.37,ESE,116,0.0,3.0,39,0.00,,,0.00,185,HR-IXPWINDi_r2_v1.2.,2013-03-18 14:15:00,
2013-03-18 10:21:00,28.4,5.5,30.37,ESE,112,1.0,6.0,37,0.00,,,0.00,211,HR-IXPWINDi_r2_v1.2.,2013-03-18 14:21:00,
2013-03-18 10:26:00,28.5,5.0,30.37,NE,44,1.0,6.0,36,0.00,,,0.00,211,HR-IXPWINDi_r2_v1.2.,2013-03-18 14:26:00,
2013-03-18 10:31:00,28.8,5.9,30.37,NE,40,2.0,5.0,37,0.00,,,0.00,199,HR-IXPWINDi_r2_v1.2.,2013-03-18 14:31:00,
2013-03-18 10:36:00,29.0,7.2,30.36,South,169,2.0,5.0,39,0.00,,,0.00,264,HR-IXPWINDi_r2_v1.2.,2013-03-18 14:36:00,
2013-03-18 10:41:00,29.3,8.6,30.36,SE,140,0.0,7.0,41,0.00,,,0.00,183,HR-IXPWINDi_r2_v1.2.,2013-03-18 14:41:00,
2013-03-18 10:47:00,29.5,7.6,30.36,SE,138,2.0,7.0,39,0.00,,,0.00,183,HR-IXPWINDi_r2_v1.2.,2013-03-18 14:47:00,
2013-03-18 10:52:00,29.4,5.8,30.36,SE,133,2.0,6.0,36,0.00,,,0.00,174,HR-IXPWINDi_r2_v1.2.,2013-03-18 14:52:00,
2013-03-18 10:57:00,29.7,7.2,30.36,SE,133,0.0,6.0,38,0.00,,,0.00,181,HR-IXPWINDi_r2_v1.2.,2013-03-18 14:57:00,
2013-03-18 11:02:00,29.7,6.1,30.36,SE,134,2.0,5.0,36,0.00,,,0.00,194,HR-IXPWINDi_r2_v1.2.,2013-03-18 15:02:00,
2013-03-18 11:07:00,29.3,6.9,30.36,ESE,120,2.0,6.0,38,0.00,,,0.00,194,HR-IXPWINDi_r2_v1.2.,2013-03-18 15:07:00,
2013-03-18 11:13:00,29.3,6.9,30.36,SE,126,3.0,7.0,38,0.00,,,0.00,199,HR-IXPWINDi_r2_v1.2.,2013-03-18 15:13:00,
2013-03-18 11:18:00,29.4,6.4,30.36,SE,127,1.0,7.0,37,0.00,,,0.00,199,HR-IXPWINDi_r2_v1.2.,2013-03-18 15:18:00,
2013-03-18 11:23:00,29.4,6.4,30.35,SE,127,5.0,6.0,37,0.00,,,0.00,204,HR-IXPWINDi_r2_v1.2.,2013-03-18 15:23:00,
2013-03-18 11:28:00,30.0,8.1,30.35,SE,138,2.0,6.0,39,0.00,,,0.00,201,HR-IXPWINDi_r2_v1.2.,2013-03-18 15:28:00,
2013-03-18 11:33:00,30.6,9.7,30.35,SSE,154,3.0,7.0,41,0.00,,,0.00,201,HR-IXPWINDi_r2_v1.2.,2013-03-18 15:33:00,
2013-03-18 11:38:00,31.0,9.0,30.35,South,189,0.0,7.0,39,0.00,,,0.00,199,HR-IXPWINDi_r2_v1.2.,2013-03-18 15:38:00,
2013-03-18 11:43:00,31.3,8.7,30.35,South,189,0.0,6.0,38,0.00,,,0.00,215,HR-IXPWINDi_r2_v1.2.,2013-03-18 15:43:00,
2013-03-18 11:48:00,31.8,8.5,30.35,South,169,1.0,3.0,37,0.00,,,0.00,220,HR-IXPWINDi_r2_v1.2.,2013-03-18 15:48:00,
2013-03-18 11:53:00,31.9,9.2,30.35,SSE,165,3.0,5.0,38,0.00,,,0.00,227,HR-IXPWINDi_r2_v1.2.,2013-03-18 15:53:00,
2013-03-18 11:59:00,31.0,8.4,30.35,SE,136,1.0,6.0,38,0.00,,,0.00,234,HR-IXPWINDi_r2_v1.2.,2013-03-18 15:59:00,
2013-03-18 12:04:00,30.7,7.6,30.35,SE,134,2.0,6.0,37,0.00,,,0.00,229,HR-IXPWINDi_r2_v1.2.,2013-03-18 16:04:00,
2013-03-18 12:09:00,30.4,8.4,30.34,East,99,2.0,8.0,39,0.00,,,0.00,227,HR-IXPWINDi_r2_v1.2.,2013-03-18 16:09:00,
2013-03-18 12:14:00,30.9,8.9,30.34,ESE,120,2.0,8.0,39,0.00,,,0.00,252,HR-IXPWINDi_r2_v1.2.,2013-03-18 16:14:00,
2013-03-18 12:19:00,31.3,10.9,30.34,SE,133,3.0,6.0,42,0.00,,,0.00,269,HR-IXPWINDi_r2_v1.2.,2013-03-18 16:19:00,
2013-03-18 12:24:00,31.9,11.4,30.34,SSE,151,3.0,6.0,42,0.00,,,0.00,280,HR-IXPWINDi_r2_v1.2.,2013-03-18 16:24:00,
2013-03-18 12:29:00,32.1,11.1,30.34,South,172,1.0,7.0,41,0.00,,,0.00,276,HR-IXPWINDi_r2_v1.2.,2013-03-18 16:29:00,
2013-03-18 12:34:00,32.2,11.2,30.34,SE,133,3.0,7.0,41,0.00,,,0.00,276,HR-IXPWINDi_r2_v1.2.,2013-03-18 16:34:00,
2013-03-18 12:39:00,32.7,14.7,30.34,South,171,2.0,7.0,47,0.00,,,0.00,278,HR-IXPWINDi_r2_v1.2.,2013-03-18 16:39:00,
2013-03-18 12:45:00,32.4,12.4,30.34,SSW,200,3.0,7.0,43,0.00,,,0.00,267,HR-IXPWINDi_r2_v1.2.,2013-03-18 16:45:00,
2013-03-18 12:50:00,32.8,11.7,30.34,South,172,3.0,5.0,41,0.00,,,0.00,257,HR-IXPWINDi_r2_v1.2.,2013-03-18 16:50:00,
2013-03-18 12:55:00,32.5,11.4,30.34,ENE,71,4.0,6.0,41,0.00,,,0.00,274,HR-IXPWINDi_r2_v1.2.,2013-03-18 16:55:00,
2013-03-18 13:00:00,31.9,13.0,30.34,ESE,102,2.0,6.0,45,0.00,,,0.00,273,HR-IXPWINDi_r2_v1.2.,2013-03-18 17:00:00,
2013-03-18 13:05:00,32.1,11.6,30.34,East,96,1.0,6.0,42,0.00,,,0.00,269,HR-IXPWINDi_r2_v1.2.,2013-03-18 17:05:00,
2013-03-18 13:10:00,31.9,11.4,30.33,ENE,66,3.0,6.0,42,0.00,,,0.00,252,HR-IXPWINDi_r2_v1.2.,2013-03-18 17:10:00,
2013-03-18 13:15:00,32.1,11.6,30.33,ESE,106,3.0,6.0,42,0.00,,,0.00,243,HR-IXPWINDi_r2_v1.2.,2013-03-18 17:15:00,
2013-03-18 13:21:00,32.1,11.6,30.31,East,86,3.0,6.0,42,0.00,,,0.00,223,HR-IXPWINDi_r2_v1.2.,2013-03-18 17:21:00,
2013-03-18 13:26:00,32.2,12.2,30.31,East,97,1.0,6.0,43,0.00,,,0.00,211,HR-IXPWINDi_r2_v1.2.,2013-03-18 17:26:00,
2013-03-18 13:31:00,32.5,12.0,30.31,East,97,0.0,5.0,42,0.00,,,0.00,194,HR-IXPWINDi_r2_v1.2.,2013-03-18 17:31:00,
2013-03-18 13:36:00,32.4,12.4,30.30,SE,124,2.0,6.0,43,0.00,,,0.00,178,HR-IXPWINDi_r2_v1.2.,2013-03-18 17:36:00,
2013-03-18 13:41:00,32.5,13.0,30.30,SSE,162,0.0,6.0,44,0.00,,,0.00,165,HR-IXPWINDi_r2_v1.2.,2013-03-18 17:41:00,
2013-03-18 13:46:00,32.5,13.0,30.30,SE,128,3.0,5.0,44,0.00,,,0.00,141,HR-IXPWINDi_r2_v1.2.,2013-03-18 17:46:00,
2013-03-18 13:51:00,32.8,12.8,30.28,ESE,113,2.0,5.0,43,0.00,,,0.00,134,HR-IXPWINDi_r2_v1.2.,2013-03-18 17:51:00,
2013-03-18 13:57:00,33.1,13.1,30.28,ENE,75,2.0,5.0,43,0.00,,,0.00,127,HR-IXPWINDi_r2_v1.2.,2013-03-18 17:57:00,
2013-03-18 14:02:00,32.7,12.2,30.28,SE,136,4.0,7.0,42,0.00,,,0.00,123,HR-IXPWINDi_r2_v1.2.,2013-03-18 18:02:00,
2013-03-18 14:07:00,32.8,12.8,30.27,SE,143,2.0,7.0,43,0.00,,,0.00,123,HR-IXPWINDi_r2_v1.2.,2013-03-18 18:07:00,
2013-03-18 14:12:00,32.9,12.9,30.27,SE,144,2.0,6.0,43,0.00,,,0.00,127,HR-IXPWINDi_r2_v1.2.,2013-03-18 18:12:00,
2013-03-18 14:18:00,32.5,12.0,30.27,East,86,5.0,10.0,42,0.00,,,0.00,114,HR-IXPWINDi_r2_v1.2.,2013-03-18 18:18:00,
2013-03-18 14:23:00,32.4,12.4,30.27,East,88,4.0,10.0,43,0.00,,,0.00,113,HR-IXPWINDi_r2_v1.2.,2013-03-18 18:23:00,
2013-03-18 14:28:00,32.4,12.9,30.27,SE,145,2.0,7.0,44,0.00,,,0.00,125,HR-IXPWINDi_r2_v1.2.,2013-03-18 18:28:00,
2013-03-18 14:33:00,32.5,12.5,30.27,SSE,154,2.0,7.0,43,0.00,,,0.00,155,HR-IXPWINDi_r2_v1.2.,2013-03-18 18:33:00,
2013-03-18 14:39:00,33.4,18.6,30.27,SSE,152,1.0,6.0,54,0.00,,,0.00,181,HR-IXPWINDi_r2_v1.2.,2013-03-18 18:39:00,
2013-03-18 14:44:00,33.2,12.6,30.27,SSE,158,2.0,6.0,42,0.00,,,0.00,160,HR-IXPWINDi_r2_v1.2.,2013-03-18 18:44:00,
2013-03-18 14:49:00,32.9,12.3,30.27,SE,133,0.0,7.0,42,0.00,,,0.00,135,HR-IXPWINDi_r2_v1.2.,2013-03-18 18:49:00,
2013-03-18 14:54:00,32.8,12.3,30.26,SSE,168,3.0,7.0,42,0.00,,,0.00,111,HR-IXPWINDi_r2_v1.2.,2013-03-18 18:54:00,
2013-03-18 14:59:00,32.5,12.0,30.26,East,80,4.0,7.0,42,0.00,,,0.00,114,HR-IXPWINDi_r2_v1.2.,2013-03-18 18:59:00,
2013-03-18 15:05:00,32.4,11.9,30.26,East,88,2.0,7.0,42,0.00,,,0.00,107,HR-IXPWINDi_r2_v1.2.,2013-03-18 19:05:00,
2013-03-18 15:10:00,32.5,15.0,30.25,SSE,154,4.0,7.0,48,0.00,,,0.00,99,HR-IXPWINDi_r2_v1.2.,2013-03-18 19:10:00,
2013-03-18 15:15:00,32.5,12.5,30.25,East,92,2.0,6.0,43,0.00,,,0.00,93,HR-IXPWINDi_r2_v1.2.,2013-03-18 19:15:00,
2013-03-18 15:20:00,32.4,12.4,30.24,ENE,73,1.0,6.0,43,0.00,,,0.00,93,HR-IXPWINDi_r2_v1.2.,2013-03-18 19:20:00,
2013-03-18 15:26:00,32.5,13.0,30.24,South,175,3.0,6.0,44,0.00,,,0.00,84,HR-IXPWINDi_r2_v1.2.,2013-03-18 19:26:00,
2013-03-18 15:31:00,32.7,13.7,30.24,SSE,154,3.0,6.0,45,0.00,,,0.00,84,HR-IXPWINDi_r2_v1.2.,2013-03-18 19:31:00,
2013-03-18 15:36:00,32.8,13.3,30.24,SSE,151,3.0,6.0,44,0.00,,,0.00,93,HR-IXPWINDi_r2_v1.2.,2013-03-18 19:36:00,
2013-03-18 15:41:00,32.5,12.5,30.24,ENE,75,1.0,6.0,43,0.00,,,0.00,74,HR-IXPWINDi_r2_v1.2.,2013-03-18 19:41:00,
2013-03-18 15:46:00,32.5,13.0,30.24,ESE,121,3.0,6.0,44,0.00,,,0.00,70,HR-IXPWINDi_r2_v1.2.,2013-03-18 19:46:00,
2013-03-18 15:52:00,32.4,12.4,30.23,East,79,3.0,6.0,43,0.00,,,0.00,81,HR-IXPWINDi_r2_v1.2.,2013-03-18 19:52:00,
2013-03-18 15:57:00,32.4,12.4,30.23,East,80,2.0,6.0,43,0.00,,,0.00,81,HR-IXPWINDi_r2_v1.2.,2013-03-18 19:57:00,
2013-03-18 16:02:00,32.2,12.8,30.23,East,86,2.0,6.0,44,0.00,,,0.00,63,HR-IXPWINDi_r2_v1.2.,2013-03-18 20:02:00,
2013-03-18 16:07:00,32.4,13.5,30.23,SSE,147,5.0,7.0,45,0.00,,,0.00,48,HR-IXPWINDi_r2_v1.2.,2013-03-18 20:07:00,
2013-03-18 16:12:00,32.1,13.2,30.23,ESE,121,1.0,7.0,45,0.00,,,0.00,44,HR-IXPWINDi_r2_v1.2.,2013-03-18 20:12:00,
2013-03-18 16:17:00,32.1,13.2,30.23,ESE,121,2.0,6.0,45,0.00,,,0.00,46,HR-IXPWINDi_r2_v1.2.,2013-03-18 20:17:00,
2013-03-18 16:22:00,31.8,13.4,30.23,NE,42,1.0,7.0,46,0.00,,,0.00,48,HR-IXPWINDi_r2_v1.2.,2013-03-18 20:22:00,
2013-03-18 16:27:00,31.9,14.0,30.23,ESE,116,4.0,7.0,47,0.00,,,0.00,53,HR-IXPWINDi_r2_v1.2.,2013-03-18 20:27:00,
2013-03-18 16:32:00,31.8,13.9,30.23,SE,134,6.0,8.0,47,0.00,,,0.00,55,HR-IXPWINDi_r2_v1.2.,2013-03-18 20:32:00,
2013-03-18 16:38:00,31.8,13.9,30.22,ESE,102,6.0,10.0,47,0.00,,,0.00,65,HR-IXPWINDi_r2_v1.2.,2013-03-18 20:38:00,
2013-03-18 16:43:00,31.6,14.2,30.22,SE,128,1.0,10.0,48,0.00,,,0.00,56,HR-IXPWINDi_r2_v1.2.,2013-03-18 20:43:00,
2013-03-18 16:48:00,31.6,14.2,30.22,East,92,3.0,10.0,48,0.00,,,0.00,63,HR-IXPWINDi_r2_v1.2.,2013-03-18 20:48:00,
2013-03-18 16:53:00,31.5,14.6,30.22,SE,127,6.0,10.0,49,0.00,,,0.00,55,HR-IXPWINDi_r2_v1.2.,2013-03-18 20:53:00,
2013-03-18 16:58:00,31.3,14.4,30.22,ENE,78,3.0,8.0,49,0.00,,,0.00,39,HR-IXPWINDi_r2_v1.2.,2013-03-18 20:58:00,
2013-03-18 17:03:00,31.2,14.3,30.22,ENE,76,2.0,8.0,49,0.00,,,0.00,37,HR-IXPWINDi_r2_v1.2.,2013-03-18 21:03:00,
2013-03-18 17:08:00,31.5,15.5,30.21,SSE,148,0.0,7.0,51,0.00,,,0.00,33,HR-IXPWINDi_r2_v1.2.,2013-03-18 21:08:00,
2013-03-18 17:13:00,31.3,15.3,30.21,SSE,158,1.0,7.0,51,0.00,,,0.00,25,HR-IXPWINDi_r2_v1.2.,2013-03-18 21:13:00,
2013-03-18 17:19:00,31.2,13.8,30.21,NE,38,1.0,7.0,48,0.00,,,0.00,23,HR-IXPWINDi_r2_v1.2.,2013-03-18 21:19:00,
2013-03-18 17:24:00,31.0,13.6,30.20,East,80,3.0,8.0,48,0.00,,,0.00,23,HR-IXPWINDi_r2_v1.2.,2013-03-18 21:24:00,
2013-03-18 17:29:00,31.0,14.1,30.20,ENE,69,3.0,8.0,49,0.00,,,0.00,12,HR-IXPWINDi_r2_v1.2.,2013-03-18 21:29:00,
2013-03-18 17:34:00,30.9,15.4,30.20,NNE,17,2.0,6.0,52,0.00,,,0.00,14,HR-IXPWINDi_r2_v1.2.,2013-03-18 21:34:00,
2013-03-18 17:39:00,30.7,15.2,30.20,ENE,61,7.0,7.0,52,0.00,,,0.00,11,HR-IXPWINDi_r2_v1.2.,2013-03-18 21:39:00,
2013-03-18 17:45:00,30.6,15.9,30.20,ENE,76,1.0,8.0,54,0.00,,,0.00,9,HR-IXPWINDi_r2_v1.2.,2013-03-18 21:45:00,
2013-03-18 17:50:00,30.6,16.4,30.20,ENE,76,2.0,8.0,55,0.00,,,0.00,5,HR-IXPWINDi_r2_v1.2.,2013-03-18 21:50:00,
2013-03-18 17:55:00,30.6,18.4,30.20,SSE,151,1.0,10.0,60,0.00,,,0.00,5,HR-IXPWINDi_r2_v1.2.,2013-03-18 21:55:00,
2013-03-18 18:00:00,30.3,18.5,30.20,ESE,102,2.0,10.0,61,0.00,,,0.00,0,HR-IXPWINDi_r2_v1.2.,2013-03-18 22:00:00,
2013-03-18 18:05:00,30.1,19.8,30.20,SSE,148,3.0,6.0,65,0.00,,,0.00,0,HR-IXPWINDi_r2_v1.2.,2013-03-18 22:05:00,
2013-03-18 18:11:00,30.0,20.0,30.20,ESE,104,2.0,8.0,66,0.00,,,0.00,0,HR-IXPWINDi_r2_v1.2.,2013-03-18 22:11:00,
2013-03-18 18:16:00,29.3,20.4,30.20,East,92,1.0,10.0,69,0.00,,,0.00,0,HR-IXPWINDi_r2_v1.2.,2013-03-18 22:16:00,
2013-03-18 18:21:00,29.0,20.8,30.18,East,80,3.0,10.0,71,0.00,,,0.00,0,HR-IXPWINDi_r2_v1.2.,2013-03-18 22:21:00,
2013-03-18 18:26:00,29.0,21.8,30.18,SSE,147,1.0,8.0,74,0.00,,,0.00,0,HR-IXPWINDi_r2_v1.2.,2013-03-18 22:26:00,
2013-03-18 18:31:00,29.0,22.1,30.18,SE,144,5.0,8.0,75,0.00,,,0.00,0,HR-IXPWINDi_r2_v1.2.,2013-03-18 22:31:00,
2013-03-18 18:36:00,28.7,22.1,30.17,SSE,157,2.0,9.0,76,0.00,,,0.00,0,HR-IXPWINDi_r2_v1.2.,2013-03-18 22:36:00,
2013-03-18 18:42:00,28.4,22.4,30.17,SE,141,0.0,9.0,78,0.00,,,0.00,0,HR-IXPWINDi_r2_v1.2.,2013-03-18 22:42:00,
2013-03-18 18:47:00,28.4,23.0,30.17,SE,133,0.0,7.0,80,0.00,,,0.00,0,HR-IXPWINDi_r2_v1.2.,2013-03-18 22:47:00,
2013-03-18 18:52:00,28.1,23.3,30.16,ENE,76,2.0,7.0,82,0.00,,,0.00,0,HR-IXPWINDi_r2_v1.2.,2013-03-18 22:52:00,
2013-03-18 18:57:00,27.8,23.6,30.16,ESE,120,3.0,5.0,84,0.00,,,0.00,0,HR-IXPWINDi_r2_v1.2.,2013-03-18 22:57:00,
2013-03-18 19:02:00,27.8,23.9,30.16,East,90,4.0,8.0,85,0.00,,,0.00,0,HR-IXPWINDi_r2_v1.2.,2013-03-18 23:02:00,
2013-03-18 19:07:00,27.8,24.2,30.16,ESE,110,0.0,8.0,86,0.00,,,0.00,0,HR-IXPWINDi_r2_v1.2.,2013-03-18 23:07:00,
2013-03-18 19:12:00,27.9,24.5,30.16,ENE,73,4.0,7.0,87,0.00,,,0.00,0,HR-IXPWINDi_r2_v1.2.,2013-03-18 23:12:00,
2013-03-18 19:18:00,27.9,24.8,30.16,North,10,2.0,7.0,88,0.00,,,0.00,0,HR-IXPWINDi_r2_v1.2.,2013-03-18 23:18:00,
2013-03-18 19:23:00,28.1,25.0,30.15,East,80,2.0,7.0,88,0.00,,,0.00,0,HR-IXPWINDi_r2_v1.2.,2013-03-18 23:23:00,
2013-03-18 19:28:00,28.1,25.3,30.15,NE,41,2.0,6.0,89,0.00,,,0.00,0,HR-IXPWINDi_r2_v1.2.,2013-03-18 23:28:00,
2013-03-18 19:33:00,28.1,25.3,30.15,ENE,75,2.0,4.0,89,0.00,,,0.00,0,HR-IXPWINDi_r2_v1.2.,2013-03-18 23:33:00,
2013-03-18 19:38:00,28.2,25.4,30.15,SSE,157,0.0,3.0,89,0.00,,,0.00,0,HR-IXPWINDi_r2_v1.2.,2013-03-18 23:38:00,
2013-03-18 19:43:00,28.2,25.4,30.15,NNE,30,0.0,3.0,89,0.00,,,0.00,0,HR-IXPWINDi_r2_v1.2.,2013-03-18 23:43:00,
2013-03-18 19:48:00,28.4,25.8,30.15,ESE,102,1.0,3.0,90,0.00,,,0.00,0,HR-IXPWINDi_r2_v1.2.,2013-03-18 23:48:00,
2013-03-18 19:54:00,28.4,25.8,30.14,NNW,343,0.0,3.0,90,0.00,,,0.00,0,HR-IXPWINDi_r2_v1.2.,2013-03-18 23:54:00,
2013-03-18 19:59:00,28.4,25.8,30.14,SE,124,0.0,6.0,90,0.00,,,0.00,0,HR-IXPWINDi_r2_v1.2.,2013-03-18 23:59:00,
2013-03-18 20:04:00,28.4,25.8,30.14,ENE,68,1.0,6.0,90,0.00,,,0.00,0,HR-IXPWINDi_r2_v1.2.,2013-03-19 00:04:00,
2013-03-18 20:09:00,28.5,25.9,30.14,ESE,107,0.0,8.0,90,0.00,,,0.00,0,HR-IXPWINDi_r2_v1.2.,2013-03-19 00:09:00,
2013-03-18 20:15:00,28.7,26.4,30.14,ENE,73,2.0,8.0,91,0.00,,,0.00,0,HR-IXPWINDi_r2_v1.2.,2013-03-19 00:15:00,
2013-03-18 20:20:00,28.8,26.5,30.14,ESE,123,2.0,6.0,91,0.00,,,0.00,0,HR-IXPWINDi_r2_v1.2.,2013-03-19 00:20:00,
2013-03-18 20:25:00,28.8,26.5,30.13,ESE,106,0.0,3.0,91,0.00,,,0.00,0,HR-IXPWINDi_r2_v1.2.,2013-03-19 00:25:00,
2013-03-18 20:30:00,29.0,26.7,30.13,ENE,62,3.0,14.0,91,0.00,,,0.00,0,HR-IXPWINDi_r2_v1.2.,2013-03-19 00:30:00,
2013-03-18 20:35:00,29.0,26.7,30.13,East,80,3.0,14.0,91,0.00,,,0.00,0,HR-IXPWINDi_r2_v1.2.,2013-03-19 00:35:00,
2013-03-18 20:40:00,29.0,26.7,30.12,East,79,2.0,6.0,91,0.00,,,0.00,0,HR-IXPWINDi_r2_v1.2.,2013-03-19 00:40:00,
2013-03-18 20:45:00,29.3,27.2,30.12,East,83,2.0,6.0,92,0.00,,,0.00,0,HR-IXPWINDi_r2_v1.2.,2013-03-19 00:45:00,
2013-03-18 20:50:00,29.4,27.3,30.12,East,85,0.0,6.0,92,0.00,,,0.00,0,HR-IXPWINDi_r2_v1.2.,2013-03-19 00:50:00,
2013-03-18 20:55:00,29.5,27.4,30.12,ESE,116,5.0,5.0,92,0.00,,,0.00,0,HR-IXPWINDi_r2_v1.2.,2013-03-19 00:55:00,
2013-03-18 21:01:00,29.7,27.6,30.12,SE,124,4.0,9.0,92,0.00,,,0.00,0,HR-IXPWINDi_r2_v1.2.,2013-03-19 01:01:00,
2013-03-18 21:06:00,29.7,27.6,30.10,ESE,119,1.0,9.0,92,0.00,,,0.00,0,HR-IXPWINDi_r2_v1.2.,2013-03-19 01:06:00,
2013-03-18 21:11:00,29.8,27.7,30.10,ENE,78,2.0,6.0,92,0.00,,,0.00,0,HR-IXPWINDi_r2_v1.2.,2013-03-19 01:11:00,
2013-03-18 21:17:00,29.8,27.7,30.10,ENE,61,0.0,7.0,92,0.00,,,0.00,0,HR-IXPWINDi_r2_v1.2.,2013-03-19 01:17:00,
2013-03-18 21:22:00,29.8,27.7,30.09,ENE,73,3.0,11.0,92,0.00,,,0.00,0,HR-IXPWINDi_r2_v1.2.,2013-03-19 01:22:00,
2013-03-18 21:27:00,29.8,27.7,30.09,NE,56,3.0,11.0,92,0.00,,,0.00,0,HR-IXPWINDi_r2_v1.2.,2013-03-19 01:27:00,
2013-03-18 21:32:00,30.0,27.9,30.09,East,92,3.0,7.0,92,0.00,,,0.00,0,HR-IXPWINDi_r2_v1.2.,2013-03-19 01:32:00,
2013-03-18 21:37:00,30.0,27.9,30.09,East,85,0.0,6.0,92,0.00,,,0.00,0,HR-IXPWINDi_r2_v1.2.,2013-03-19 01:37:00,
2013-03-18 21:42:00,29.8,27.7,30.09,NE,40,1.0,7.0,92,0.00,,,0.00,0,HR-IXPWINDi_r2_v1.2.,2013-03-19 01:42:00,
2013-03-18 21:47:00,30.0,27.9,30.09,East,100,0.0,7.0,92,0.00,,,0.00,0,HR-IXPWINDi_r2_v1.2.,2013-03-19 01:47:00,
2013-03-18 21:53:00,30.0,27.9,30.08,East,99,0.0,6.0,92,0.00,,,0.00,0,HR-IXPWINDi_r2_v1.2.,2013-03-19 01:53:00,
2013-03-18 21:58:00,30.0,27.9,30.08,NE,54,3.0,5.0,92,0.00,,,0.00,0,HR-IXPWINDi_r2_v1.2.,2013-03-19 01:58:00,
2013-03-18 22:03:00,30.1,28.0,30.08,ENE,68,2.0,6.0,92,0.00,,,0.00,0,HR-IXPWINDi_r2_v1.2.,2013-03-19 02:03:00,
2013-03-18 22:08:00,30.1,28.0,30.08,NE,48,3.0,6.0,92,0.00,,,0.00,0,HR-IXPWINDi_r2_v1.2.,2013-03-19 02:08:00,
2013-03-18 22:13:00,30.1,28.0,30.08,East,80,5.0,5.0,92,0.00,,,0.00,0,HR-IXPWINDi_r2_v1.2.,2013-03-19 02:13:00,
2013-03-18 22:19:00,30.3,28.2,30.08,SSE,164,2.0,6.0,92,0.00,,,0.00,0,HR-IXPWINDi_r2_v1.2.,2013-03-19 02:19:00,
2013-03-18 22:24:00,30.3,28.2,30.07,SSE,154,2.0,6.0,92,0.00,,,0.00,0,HR-IXPWINDi_r2_v1.2.,2013-03-19 02:24:00,
2013-03-18 22:29:00,30.4,28.3,30.07,SSE,154,0.0,5.0,92,0.00,,,0.00,0,HR-IXPWINDi_r2_v1.2.,2013-03-19 02:29:00,
2013-03-18 22:34:00,30.4,28.3,30.07,East,85,2.0,3.0,92,0.00,,,0.00,0,HR-IXPWINDi_r2_v1.2.,2013-03-19 02:34:00,
2013-03-18 22:40:00,30.4,28.3,30.07,NE,34,0.0,3.0,92,0.00,,,0.00,0,HR-IXPWINDi_r2_v1.2.,2013-03-19 02:40:00,
2013-03-18 22:45:00,30.4,28.3,30.07,ESE,116,2.0,5.0,92,0.00,,,0.00,0,HR-IXPWINDi_r2_v1.2.,2013-03-19 02:45:00,
2013-03-18 22:50:00,30.6,28.5,30.07,ESE,102,0.0,5.0,92,0.00,,,0.00,0,HR-IXPWINDi_r2_v1.2.,2013-03-19 02:50:00,
2013-03-18 22:56:00,30.6,28.5,30.05,NE,55,2.0,5.0,92,0.00,,,0.00,0,HR-IXPWINDi_r2_v1.2.,2013-03-19 02:56:00,
2013-03-18 23:01:00,30.7,28.9,30.05,ESE,112,2.0,3.0,93,0.00,,,0.00,0,HR-IXPWINDi_r2_v1.2.,2013-03-19 03:01:00,
2013-03-18 23:06:00,30.9,29.1,30.05,NE,47,0.0,4.0,93,0.00,,,0.00,0,HR-IXPWINDi_r2_v1.2.,2013-03-19 03:06:00,
2013-03-18 23:12:00,31.0,29.2,30.05,ENE,69,3.0,6.0,93,0.00,,,0.00,0,HR-IXPWINDi_r2_v1.2.,2013-03-19 03:12:00,
2013-03-18 23:17:00,31.2,29.4,30.05,East,88,2.0,6.0,93,0.00,,,0.00,0,HR-IXPWINDi_r2_v1.2.,2013-03-19 03:17:00,
2013-03-18 23:22:00,31.5,29.7,30.04,ESE,110,1.0,6.0,93,0.00,,,0.00,0,HR-IXPWINDi_r2_v1.2.,2013-03-19 03:22:00,
2013-03-18 23:27:00,31.6,29.8,30.04,NNE,30,4.0,6.0,93,0.00,,,0.00,0,HR-IXPWINDi_r2_v1.2.,2013-03-19 03:27:00,
2013-03-18 23:33:00,31.9,30.1,30.04,ESE,104,0.0,8.0,93,0.00,,,0.00,0,HR-IXPWINDi_r2_v1.2.,2013-03-19 03:33:00,
2013-03-18 23:38:00,32.1,30.3,30.03,SE,128,2.0,10.0,93,0.00,,,0.00,0,HR-IXPWINDi_r2_v1.2.,2013-03-19 03:38:00,
2013-03-18 23:43:00,32.2,30.4,30.03,NE,34,3.0,10.0,93,0.00,,,0.00,0,HR-IXPWINDi_r2_v1.2.,2013-03-19 03:43:00,
2013-03-18 23:48:00,32.4,30.6,30.03,East,97,3.0,6.0,93,0.00,,,0.00,0,HR-IXPWINDi_r2_v1.2.,2013-03-19 03:48:00,
2013-03-18 23:53:00,32.4,30.6,30.02,East,88,2.0,8.0,93,0.00,,,0.00,0,HR-IXPWINDi_r2_v1.2.,2013-03-19 03:53:00,
2013-03-18 23:58:00,32.5,30.7,30.02,SSW,206,3.0,8.0,93,0.00,,,0.00,0,HR-IXPWINDi_r2_v1.2.,2013-03-19 03:58:00,